Location: Alincthun
(50.7310°N, 1.8022°E)
Time: 20:20:09
(UTC+00:00)

Cosmos 1470 Rocket - Pass Details

Date: 17 February 2020
Orbit: 604 x 633 km, 82.5° (Epoch: 30 March)

Event Time Altitude Azimuth Distance (km) Brightness Sun altitude
Rises 06:22:36 0° 350° (N) 2,920 6.8 -6.9°
Reaches altitude 10° 06:24:50 10° 351° (N) 2,012 6.0 -6.6°
Maximum altitude 06:29:18 82° 78° (ENE) 643 3.8 -5.9°
Drops below altitude 10° 06:33:47 10° 168° (SSE) 2,009 6.5 -5.2°
Sets 06:36:00 0° 169° (S) 2,914 7.4 -4.8°
